Location: Unspecified
(0.0000°N, 0.0000°E)
Time: 19:34:44
(UTC+00:00)

Vanguard 1 Rocket - Pass Details

Date: 16 April 2026
Orbit: 655 x 4212 km, 34.3° (Epoch: 17 May)

Event Time Altitude Azimuth Distance (km) Brightness Sun altitude
Rises 00:55:12 0° 303° (WNW) 8,362 12.2 -73.0°
Reaches altitude 10° 01:06:08 10° 323° (NW) 6,875 11.8 -70.7°
Maximum altitude 01:17:05 15° 354° (N) 5,582 11.4 -68.3°
Drops below altitude 10° 01:25:32 10° 26° (NNE) 5,183 11.4 -66.4°
Sets 01:31:28 0° 48° (NE) 5,475 11.7 -65.1°
